FR5ZU Weather Reports


Display with metric or nautical units.
time (UTC)temp
F
wind
direction
speed
MPH
gust
MPH
rain 1hr
in
rain 24hr
in
rain mn
in
humidity
%
barometer
mb
20260505124543 68 189 0.0 2.0 0.00 0.02 0.02 93 1016.2
20260505123043 69 118 1.0 3.0 0.00 0.02 0.02 92 1016.0
20260505121547 70 123 0.0 6.0 0.00 0.02 0.02 91 1015.8
20260505120042 71 115 0.0 3.0 0.00 0.02 0.02 89 1015.7
20260505114541 71 168 0.0 3.0 0.00 0.02 0.02 88 1015.7
20260505113044 72 94 1.0 3.0 0.00 0.02 0.02 88 1015.7
20260505111545 73 89 2.0 9.0 0.00 0.02 0.02 87 1015.5
20260505101536 74 205 2.0 5.0 0.00 0.02 0.02 85 1015.6
20260505100036 73 105 2.0 7.0 0.00 0.02 0.02 85 1015.7
20260505094533 74 125 2.0 9.0 0.00 0.02 0.02 84 1015.6
20260505093044 75 160 4.0 8.0 0.00 0.02 0.02 82 1015.7
20260505091530 75 144 3.0 6.0 0.00 0.02 0.02 82 1016.0
20260505090030 75 123 3.0 7.0 0.00 0.02 0.02 82 1016.2
20260505084529 75 157 1.0 6.0 0.00 0.02 0.02 83 1016.3
20260505083020 74 118 3.0 8.0 0.00 0.02 0.02 85 1016.6
20260505081521 74 110 5.0 9.0 0.00 0.02 0.02 83 1016.9
20260505080027 74 159 4.0 7.0 0.00 0.02 0.02 84 1017.1
20260505074512 73 78 2.0 7.0 0.00 0.02 0.02 86 1017.3
20260505073008 71 160 3.0 13.0 0.00 0.02 0.02 88 1017.4
20260505071506 71 105 5.0 8.0 0.00 0.02 0.02 88 1017.5
20260505070005 70 115 4.0 6.0 0.00 0.02 0.02 88 1017.9
20260505064506 70 108 3.0 6.0 0.00 0.02 0.02 88 1018.1
20260505063002 71 119 2.0 4.0 0.00 0.02 0.02 87 1018.2
20260505061621 70 141 3.0 5.0 0.00 0.02 0.02 87 1018.3
20260505060059 70 120 1.0 4.0 0.00 0.02 0.02 86 1018.5
20260505054556 70 85 1.0 5.0 0.00 0.02 0.02 85 1018.3
20260505053050 69 102 2.0 5.0 0.00 0.02 0.02 84 1018.2
20260505051547 69 120 1.0 3.0 0.00 0.02 0.02 85 1018.4
20260505041539 67 267 0.0 0.0 0.00 0.02 0.02 86 1018.4
20260505040048 65 241 0.0 0.0 0.02 0.02 0.02 87 1018.4
20260505034538 63 241 0.0 0.0 0.02 0.02 0.02 94 1018.2
20260505033026 61 241 0.0 0.0 0.02 0.02 0.02 95 1018.1
20260505031526 60 241 0.0 0.0 0.02 0.02 0.02 96 1018.2
20260505030025 60 92 0.0 0.0 0.00 0.00 0.00 97 1018.3
20260505024523 60 82 0.0 0.0 0.00 0.00 0.00 95 1018.1
20260505023022 60 82 0.0 0.0 0.00 0.00 0.00 94 1018.0
20260505021522 60 82 0.0 0.0 0.00 0.00 0.00 94 1017.8
20260505020034 60 82 0.0 0.0 0.00 0.00 0.00 94 1017.6
20260505014520 60 82 0.0 0.0 0.00 0.00 0.00 94 1017.4
20260505013021 60 82 0.0 0.0 0.00 0.00 0.00 94 1017.2
20260505011520 60 82 0.0 0.0 0.00 0.00 0.00 94 1017.3
20260505010019 60 82 0.0 0.0 0.00 0.00 0.00 94 1017.3
20260505004518 60 82 0.0 0.0 0.00 0.00 0.00 95 1017.3
20260505003016 60 82 0.0 0.0 0.00 0.00 0.00 95 1017.4
20260505001516 60 82 0.0 0.0 0.00 0.00 0.00 95 1017.4
20260505000017 60 82 0.0 0.0 0.00 0.00 0.00 96 1017.4
20260504234615 60 82 0.0 0.0 0.00 0.00 0.00 97 1017.3
20260504233013 60 82 0.0 0.0 0.00 0.00 0.00 97 1017.4
20260504231512 60 82 0.0 0.0 0.00 0.00 0.00 98 1017.5
20260504230012 60 82 0.0 0.0 0.00 0.00 0.00 98 1017.6
20260504224510 60 82 0.0 0.0 0.00 0.00 0.00 98 1017.6
20260504223010 60 82 0.0 0.0 0.00 0.00 0.00 98 1017.6
20260504221508 60 82 0.0 0.0 0.00 0.00 0.00 98 1017.8
20260504220021 60 82 0.0 0.0 0.00 0.00 0.00 99 1017.8
20260504214504 60 82 0.0 0.0 0.00 0.00 0.00 99 1018.0
20260504213006 60 82 0.0 0.0 0.00 0.00 0.00 99 1018.0
20260504211502 60 82 0.0 0.0 0.00 0.00 0.00 99 1018.0
20260504210105 61 82 0.0 0.0 0.00 0.00 0.00 100 1018.0
20260504204605 61 82 0.0 0.0 0.00 0.00 0.00 100 1018.1
20260504203058 61 82 0.0 0.0 0.00 0.00 0.00 99 1018.2
20260504201558 60 82 0.0 0.0 0.00 0.00 0.00 99 1018.3
20260504200057 60 82 0.0 0.0 0.00 0.00 0.00 99 1018.4
20260504194559 61 82 0.0 0.0 0.00 0.00 0.00 99 1018.4
20260504193112 61 82 0.0 0.0 0.00 0.00 0.00 99 1018.5
20260504191555 61 82 0.0 0.0 0.00 0.00 0.00 100 1018.7
20260504190106 61 82 0.0 0.0 0.00 0.00 0.00 100 1018.6
20260504184554 61 82 0.0 0.0 0.00 0.00 0.00 100 1018.6
20260504183100 62 82 0.0 0.0 0.00 0.00 0.00 100 1018.5
20260504181554 62 82 0.0 0.0 0.00 0.00 0.00 100 1018.4
20260504180131 62 82 0.0 0.0 0.00 0.00 0.00 100 1018.6
20260504174552 62 82 0.0 1.0 0.00 0.00 0.00 100 1018.6
20260504173052 62 82 0.0 0.0 0.00 0.00 0.00 100 1018.6
20260504171552 63 82 0.0 0.0 0.00 0.00 0.00 100 1018.6